Wind_Speed
28 28 28 28 29 29 28 27 26 26 26 26 26 26 26 26 25 24 23 21 20 20 20 19 18 17 16 16 15 15 14 14 13 12 12 12 11 10 9 9 9 8 8 8 8 8 8 8 8
28 29 29 30 30 30 29 28 28 28 29 28 28 28 28 27 26 26 25 23 22 22 21 21 20 19 18 18 17 17 16 16 15 15 14 13 13 12 11 10 10 9 9 9 10 10 10 10 9
29 30 30 31 31 30 30 29 30 30 30 30 30 30 30 30 28 28 27 26 24 23 22 22 22 21 20 20 19 19 19 18 18 17 16 15 15 14 13 12 12 11 11 11 11 11 11 11 11
30 30 31 32 31 30 30 31 31 31 31 31 32 32 32 32 30 29 29 27 25 24 24 23 22 22 21 21 21 20 21 20 19 19 18 17 17 16 15 14 14 13 13 12 12 13 12 12 13
30 30 31 31 31 30 30 31 31 31 32 32 33 33 33 32 31 31 30 28 27 26 25 25 24 23 22 22 22 22 22 22 21 20 20 20 19 18 18 17 16 15 15 14 14 14 14 14 14
29 30 30 30 29 30 31 31 32 32 33 33 33 33 33 32 32 31 31 29 28 28 27 26 26 25 24 24 24 23 23 23 23 23 22 22 21 20 20 19 19 18 17 16 16 16 16 15 15
28 29 29 29 29 30 31 32 33 33 33 34 33 33 33 32 32 32 31 30 29 29 28 27 27 26 26 25 25 25 24 24 25 25 24 24 23 23 23 22 21 20 20 19 18 18 18 18 18
29 29 29 29 29 30 31 32 33 33 34 34 34 34 33 33 32 33 32 31 30 29 29 28 27 27 26 26 26 26 26 26 26 26 26 25 25 25 25 24 24 23 22 22 21 21 20 21 20
29 29 29 29 29 29 31 32 33 33 34 34 34 34 34 34 33 34 33 32 32 31 30 30 29 29 29 28 29 28 28 28 27 28 27 26 27 27 26 26 26 26 25 24 24 24 23 23 23
28 28 28 29 29 29 30 31 32 32 33 33 33 34 34 34 34 34 34 33 33 32 31 31 30 30 30 30 30 30 29 30 29 30 29 28 29 28 28 28 28 28 27 27 26 26 26 26 25
27 28 28 29 29 29 30 30 31 32 33 33 34 34 34 34 34 34 34 34 33 33 33 32 32 32 32 32 32 31 31 31 31 32 31 29 30 30 30 30 30 30 30 30 29 29 28 28 27
27 27 27 28 29 30 30 31 31 32 33 34 35 34 34 34 34 35 35 35 35 35 35 35 35 34 33 34 34 33 32 32 32 33 33 31 32 31 31 31 32 32 32 32 32 31 31 30 30
26 26 26 27 29 29 30 30 31 32 32 34 35 34 34 34 35 35 35 35 35 36 35 35 36 35 35 35 35 35 34 34 34 34 35 34 34 34 33 33 33 33 33 33 33 33 33 32 32
25 26 26 27 28 29 29 30 30 30 32 32 33 34 35 34 34 34 35 34 36 36 36 35 36 36 36 36 36 36 36 36 36 36 36 36 36 36 36 35 35 35 35 34 34 34 34 34 34
25 25 26 26 27 28 28 28 29 30 31 31 32 34 35 35 34 35 35 35 35 36 36 36 35 36 36 36 37 37 37 37 38 38 38 37 38 38 38 37 37 37 37 36 35 35 35 35 35
23 24 25 26 27 27 27 27 28 29 30 31 32 32 34 34 34 35 35 35 35 35 36 36 36 36 37 37 38 38 39 39 39 40 40 40 40 39 39 39 39 39 39 38 38 38 37 37 37
23 23 24 24 25 26 28 28 28 28 29 30 31 31 33 34 34 34 34 34 34 35 36 37 38 38 39 39 39 40 40 40 40 40 40 40 41 41 40 40 40 41 41 41 41 40 40 39 39
22 22 23 22 23 24 25 26 25 26 27 28 30 31 33 34 34 34 35 33 34 35 37 38 39 40 41 41 41 41 41 41 42 41 41 42 42 41 42 41 41 42 42 43 43 43 42 41 41
22 22 23 22 22 22 23 23 23 24 25 26 28 29 32 34 34 35 35 34 35 36 37 39 40 41 42 42 42 42 42 43 43 42 42 42 44 43 43 43 43 43 44 44 44 44 44 43 43
22 21 22 22 21 21 20 20 21 22 24 25 27 29 30 32 34 35 36 35 35 37 39 39 39 42 42 43 44 43 43 43 44 44 44 44 44 45 45 45 45 45 45 45 46 46 45 45 44
21 21 20 20 20 20 20 21 22 23 24 26 27 28 29 31 34 35 34 34 35 37 39 40 40 40 42 43 43 43 43 44 44 45 45 46 46 46 46 46 46 47 46 46 46 46 46 45 45
21 20 20 19 20 21 21 21 21 23 24 25 26 27 29 31 33 34 34 34 35 36 37 38 39 40 42 43 44 44 44 45 45 46 46 46 47 47 47 47 47 46 46 47 47 46 47 47 47
21 20 19 19 20 20 20 21 20 22 23 25 26 27 28 30 32 34 34 34 35 36 37 38 39 40 41 44 45 45 45 45 45 47 48 48 48 48 48 48 47 47 47 47 47 47 47 48 48
19 19 19 18 18 19 19 20 21 21 22 23 25 26 28 29 31 32 32 34 35 36 37 38 39 39 41 42 44 45 46 46 45 46 47 47 47 47 47 47 47 48 48 47 47 48 48 48 48
19 19 19 18 18 19 19 21 21 21 22 24 24 25 26 28 29 30 30 32 34 35 36 38 40 41 42 43 44 44 46 47 47 47 47 47 47 47 47 47 47 47 48 48 48 48 49 49 49
18 19 19 19 19 19 19 20 20 21 22 23 24 24 25 26 27 28 29 30 31 32 34 36 38 40 42 44 45 45 46 48 48 48 47 47 47 47 47 47 46 46 47 48 48 48 49 49 49
18 18 19 20 20 20 20 20 20 20 21 22 23 24 24 25 26 27 27 28 30 31 33 35 36 37 40 43 45 46 46 47 47 46 47 48 47 47 47 47 46 46 47 48 48 49 48 49 49
19 19 19 20 21 22 22 21 20 20 21 23 23 24 26 27 27 27 28 28 29 31 32 34 35 36 38 40 42 45 46 47 46 45 46 47 47 47 47 47 47 47 47 47 48 49 49 49 49
19 19 20 21 22 23 24 22 21 22 22 23 24 25 26 27 27 28 29 30 31 32 32 35 36 37 38 39 41 43 45 46 46 45 46 46 46 46 46 47 47 47 47 47 48 48 48 48 49
20 20 21 22 22 23 24 24 22 23 23 24 25 25 26 27 29 30 31 32 33 33 33 35 36 37 38 38 40 41 43 43 44 44 44 44 46 47 46 47 48 48 48 48 49 49 49 49 49
Wind_Direction
260 261 260 260 258 256 253 252 251 248 247 247 246 246 245 244 243 243 243 242 243 243 243 244 245 246 246 245 243 242 241 240 237 236 237 237 238 238 239 239 240 242 245 250 252 255 254 255 256
260 260 260 259 258 257 254 252 250 248 246 246 246 245 244 244 243 242 241 241 242 243 243 244 244 245 246 244 244 245 243 241 240 240 239 240 241 243 243 243 244 246 249 253 256 256 255 256 257
260 261 260 259 258 257 255 252 250 248 246 245 245 246 244 243 242 241 240 240 241 242 243 245 244 245 245 243 244 244 243 242 240 241 241 241 242 243 245 246 246 248 252 256 258 259 257 256 257
261 261 260 259 258 255 253 252 249 248 247 246 246 246 244 242 241 241 240 240 240 242 243 245 243 243 244 244 244 244 244 243 243 242 242 243 243 243 245 248 249 250 252 256 258 260 260 258 259
261 261 260 259 257 254 252 251 250 249 248 247 246 245 243 241 240 239 239 240 240 241 242 244 244 244 245 244 244 243 244 244 244 243 242 243 243 244 246 248 250 251 254 256 258 260 261 260 261
262 261 260 259 257 254 251 250 250 249 248 247 246 244 241 240 240 239 240 240 240 240 241 243 244 245 245 245 247 246 246 246 244 244 245 246 245 245 247 248 249 251 253 256 259 260 261 262 261
261 261 260 259 258 255 252 251 250 249 248 247 246 244 240 240 239 239 239 239 240 241 241 243 243 244 245 244 245 244 245 246 246 246 247 249 249 248 248 249 250 252 254 256 259 260 260 261 262
262 260 259 260 259 257 254 252 250 249 247 246 244 242 240 239 240 239 238 238 239 240 240 241 243 244 244 243 244 244 244 246 246 247 248 249 250 250 250 250 252 253 255 256 258 260 261 262 264
262 260 261 260 259 258 256 254 251 249 247 245 243 242 241 239 238 238 238 238 239 239 240 241 242 243 243 243 245 245 245 245 246 248 249 250 251 251 252 252 253 254 255 256 258 260 262 262 264
263 263 263 261 258 258 257 254 251 248 247 245 243 241 240 238 238 237 237 238 239 240 241 242 243 243 243 244 245 245 245 247 247 248 250 251 252 252 252 253 254 254 255 256 258 260 262 263 264
265 265 264 261 259 257 256 254 251 249 247 245 242 240 239 239 238 237 237 238 240 240 241 242 243 244 244 244 245 245 246 248 248 249 250 251 253 253 253 253 254 255 256 257 258 260 262 262 263
267 267 264 261 259 258 256 254 252 250 249 246 243 240 238 237 238 238 239 241 241 241 242 243 243 244 245 245 245 246 247 248 250 251 252 253 254 254 254 255 255 256 257 258 259 260 261 262 264
266 266 263 261 259 257 257 256 253 250 249 247 244 240 239 239 239 239 240 241 242 241 242 243 244 244 244 245 246 246 247 249 250 251 253 254 255 256 255 257 257 257 258 259 259 261 262 263 264
268 266 263 261 260 259 258 255 252 249 249 247 244 242 240 240 240 240 240 241 242 241 241 243 244 244 243 245 246 247 247 249 250 252 253 254 255 256 256 257 257 257 258 258 259 261 262 263 264
268 268 265 263 262 259 257 254 252 249 249 248 247 246 242 241 242 241 241 242 242 242 242 243 244 245 245 246 248 248 248 251 251 252 253 254 255 256 256 256 256 257 257 258 259 261 262 264 264
270 269 269 267 265 260 258 256 253 250 249 247 246 246 243 242 242 242 242 243 242 243 243 243 244 246 247 248 250 249 250 251 251 252 253 255 256 256 255 256 256 257 258 258 259 261 263 265 265
272 273 273 270 265 261 259 257 255 254 251 248 246 246 243 243 241 241 244 246 244 245 245 245 245 247 249 250 251 251 251 252 252 253 254 257 257 257 256 256 257 257 258 258 260 262 263 265 266
274 275 275 273 268 263 260 257 256 254 251 248 247 246 244 243 242 243 246 247 248 250 249 249 249 250 250 250 251 251 252 252 252 253 255 257 258 258 258 257 258 258 259 260 261 263 264 265 266
273 275 275 272 268 265 261 257 256 253 251 248 247 248 246 243 243 245 247 249 251 252 252 253 252 251 250 251 251 251 251 252 252 253 255 257 258 257 258 258 258 259 261 262 262 263 265 266 265
274 276 277 272 269 267 264 260 258 256 252 251 252 250 247 244 245 248 249 251 252 253 254 253 252 252 251 252 251 251 251 252 253 254 256 257 257 257 258 259 259 260 261 263 263 262 264 265 266
274 276 278 273 267 264 264 262 258 256 255 253 254 252 251 249 249 250 253 254 254 254 255 254 254 253 251 251 252 251 251 253 254 255 257 257 257 258 258 258 259 260 261 263 263 264 264 265 267
276 276 274 270 267 264 263 262 260 258 257 258 257 255 254 252 252 254 257 256 255 255 256 254 254 254 252 250 251 251 252 253 256 257 257 257 258 259 259 259 259 260 262 263 263 264 264 265 268
277 276 274 272 270 266 262 261 262 262 261 260 260 260 259 257 255 256 258 258 257 255 255 255 255 254 252 252 251 251 252 254 257 257 258 259 259 259 259 259 260 261 262 262 263 264 265 266 267
277 275 274 275 272 266 262 263 266 266 266 264 264 263 261 259 257 258 261 261 259 257 256 256 256 255 253 253 252 252 253 254 256 257 258 259 259 259 260 260 261 262 261 262 264 264 265 265 267
275 273 273 275 275 273 268 266 268 269 270 269 267 266 262 262 263 263 264 264 263 261 258 257 257 256 255 255 254 254 254 255 257 258 259 258 259 259 260 261 261 262 262 262 263 264 265 265 266
275 274 273 275 276 276 273 271 271 275 277 275 272 269 266 264 264 265 266 266 265 263 261 259 259 258 257 256 256 256 258 258 260 260 260 259 259 260 261 262 261 262 262 262 263 264 264 265 266
275 275 275 275 275 277 278 277 276 277 279 280 277 273 271 270 270 269 269 267 266 266 265 263 262 261 260 259 259 259 259 260 260 261 260 260 260 261 261 261 261 261 262 262 263 263 265 266 267
274 276 276 276 278 278 278 279 281 277 278 279 279 277 276 275 275 275 273 271 270 271 270 268 265 265 265 265 264 263 261 260 259 260 259 260 261 260 261 261 261 261 261 262 263 264 265 266 267
274 275 276 277 277 280 279 280 280 278 279 281 282 281 278 277 276 277 279 276 274 274 272 270 269 269 269 268 267 265 263 262 261 261 261 261 261 260 260 260 261 261 261 262 264 264 265 265 266
273 273 275 277 277 277 280 281 278 278 279 280 282 283 282 279 278 279 280 279 277 275 275 273 271 271 271 270 268 266 265 263 262 262 262 262 262 261 260 261 261 261 262 263 264 264 265 266 267
Height
5808 5808 5808 5809 5809 5809 5810 5812 5813 5815 5816 5817 5819 5820 5822 5824 5826 5830 5830 5830 5831 5832 5833 5834 5836 5836 5837 5838 5838 5839 5840 5841 5841 5842 5842 5843 5844 5844 5845 5845 5845 5846 5846 5846 5846 5847 5847 5846 5846
5802 5802 5802 5802 5802 5803 5805 5806 5807 5809 5810 5811 5813 5814 5816 5818 5820 5822 5824 5825 5827 5828 5829 5831 5832 5833 5834 5835 5836 5836 5837 5838 5839 5839 5840 5841 5842 5842 5843 5843 5844 5844 5844 5844 5844 5844 5844 5844 5844
5795 5795 5796 5795 5796 5798 5799 5800 5801 5802 5803 5805 5806 5808 5810 5813 5815 5817 5819 5820 5822 5824 5825 5827 5828 5829 5830 5831 5832 5833 5834 5835 5836 5837 5837 5838 5839 5840 5840 5841 5841 5842 5842 5842 5842 5842 5842 5842 5842
5788 5789 5789 5789 5789 5791 5792 5793 5793 5795 5796 5798 5799 5801 5803 5806 5809 5811 5813 5816 5817 5819 5821 5822 5823 5825 5826 5827 5828 5830 5831 5832 5833 5833 5834 5835 5836 5837 5837 5838 5839 5839 5839 5839 5839 5839 5839 5839 5839
5781 5781 5781 5781 5783 5784 5785 5785 5785 5787 5789 5790 5792 5793 5795 5798 5802 5805 5807 5810 5812 5814 5815 5817 5818 5820 5822 5823 5824 5825 5827 5828 5829 5830 5831 5831 5832 5833 5834 5835 5835 5836 5836 5836 5836 5836 5836 5836 5836
5774 5773 5774 5774 5775 5776 5777 5778 5778 5779 5781 5783 5784 5786 5788 5791 5795 5798 5801 5804 5806 5808 5810 5811 5813 5815 5817 5818 5819 5821 5822 5823 5824 5825 5827 5827 5828 5830 5830 5831 5832 5832 5833 5833 5833 5833 5833 5833 5833
5767 5767 5767 5767 5768 5768 5770 5770 5770 5771 5773 5775 5777 5779 5782 5785 5788 5791 5794 5797 5799 5802 5804 5806 5807 5809 5811 5813 5814 5816 5817 5818 5820 5821 5822 5823 5824 5825 5826 5827 5828 5828 5829 5829 5829 5829 5830 5829 5829
5759 5760 5760 5760 5760 5761 5761 5762 5763 5764 5765 5768 5770 5772 5775 5779 5782 5785 5788 5790 5793 5795 5797 5799 5801 5803 5805 5807 5809 5810 5812 5813 5815 5816 5817 5818 5819 5820 5821 5822 5823 5824 5824 5825 5825 5825 5826 5826 5825
5752 5753 5753 5753 5753 5753 5753 5754 5755 5756 5758 5760 5762 5765 5768 5771 5774 5778 5781 5784 5786 5788 5790 5793 5795 5797 5799 5801 5803 5804 5806 5808 5809 5810 5811 5813 5814 5815 5816 5817 5818 5819 5820 5820 5820 5821 5821 5821 5821
5745 5745 5747 5746 5746 5746 5746 5747 5748 5749 5750 5752 5755 5758 5761 5764 5767 5771 5774 5777 5779 5781 5783 5786 5788 5790 5792 5794 5796 5798 5800 5802 5803 5804 5806 5807 5808 5809 5810 5811 5812 5813 5814 5815 5815 5815 5816 5816 5816
5738 5738 5738 5738 5738 5738 5739 5739 5740 5741 5743 5746 5748 5750 5753 5757 5760 5763 5766 5769 5772 5774 5776 5778 5780 5783 5785 5787 5789 5791 5793 5795 5797 5798 5799 5801 5802 5803 5804 5805 5806 5807 5808 5809 5809 5810 5810 5810 5811
5731 5731 5731 5731 5731 5731 5732 5732 5733 5734 5736 5738 5740 5743 5746 5750 5753 5756 5759 5761 5763 5765 5767 5769 5772 5775 5777 5780 5782 5784 5786 5788 5790 5791 5793 5794 5796 5797 5798 5799 5800 5800 5801 5802 5803 5803 5804 5804 5804
5724 5724 5723 5723 5723 5724 5724 5725 5725 5727 5728 5730 5732 5735 5738 5742 5745 5748 5751 5753 5755 5757 5759 5761 5764 5767 5770 5772 5774 5777 5779 5781 5783 5784 5786 5787 5789 5790 5791 5792 5793 5793 5794 5795 5796 5797 5797 5797 5798
5718 5717 5716 5716 5716 5716 5717 5717 5718 5720 5720 5722 5724 5727 5731 5734 5737 5740 5743 5746 5747 5749 5751 5753 5756 5759 5761 5764 5766 5769 5771 5773 5775 5776 5778 5779 5781 5782 5783 5784 5785 5786 5787 5788 5788 5789 5790 5790 5790
5711 5711 5710 5709 5709 5709 5710 5710 5711 5713 5713 5715 5717 5720 5723 5726 5729 5732 5735 5737 5739 5742 5744 5746 5748 5750 5753 5756 5758 5760 5763 5765 5767 5768 5769 5771 5772 5774 5775 5776 5777 5778 5779 5780 5780 5781 5782 5782 5782
5706 5705 5704 5703 5702 5702 5704 5704 5704 5705 5706 5708 5710 5712 5715 5718 5721 5724 5727 5729 5731 5733 5736 5738 5740 5742 5745 5747 5749 5751 5754 5755 5758 5759 5761 5762 5763 5765 5766 5767 5768 5769 5770 5771 5772 5773 5774 5774 5774
5700 5699 5698 5697 5696 5695 5696 5697 5698 5698 5699 5701 5703 5706 5708 5711 5714 5717 5719 5721 5723 5725 5727 5729 5732 5734 5736 5738 5740 5742 5744 5746 5748 5750 5752 5753 5754 5756 5757 5758 5759 5760 5761 5763 5764 5764 5765 5765 5765
5695 5693 5692 5691 5690 5690 5689 5690 5691 5691 5693 5695 5697 5699 5701 5704 5707 5709 5711 5713 5716 5717 5719 5721 5723 5725 5726 5728 5730 5732 5734 5736 5739 5741 5742 5743 5745 5746 5748 5749 5750 5751 5752 5753 5754 5755 5756 5756 5756
5689 5688 5687 5686 5685 5684 5684 5684 5685 5685 5687 5689 5690 5692 5694 5697 5699 5701 5703 5705 5707 5709 5710 5712 5713 5715 5717 5719 5721 5723 5725 5727 5729 5731 5732 5733 5735 5737 5738 5739 5741 5742 5743 5743 5744 5745 5746 5746 5746
5683 5682 5681 5681 5679 5679 5679 5680 5680 5680 5682 5683 5684 5685 5687 5690 5692 5694 5696 5697 5698 5700 5701 5702 5703 5705 5707 5708 5710 5712 5714 5717 5719 5720 5722 5723 5724 5726 5727 5729 5730 5731 5732 5733 5733 5734 5735 5736 5736
5678 5677 5677 5676 5675 5674 5674 5675 5675 5676 5676 5677 5678 5679 5681 5683 5684 5686 5687 5688 5689 5690 5691 5692 5693 5695 5696 5698 5699 5701 5703 5706 5707 5709 5711 5712 5713 5714 5716 5717 5719 5720 5721 5722 5723 5723 5724 5725 5725
5673 5673 5672 5671 5670 5669 5670 5670 5671 5670 5671 5671 5672 5673 5674 5675 5676 5678 5678 5679 5680 5680 5681 5682 5683 5684 5686 5688 5689 5691 5693 5695 5697 5698 5699 5701 5702 5703 5704 5706 5707 5708 5709 5710 5711 5712 5712 5713 5713
5668 5668 5667 5666 5665 5664 5665 5664 5666 5665 5665 5665 5666 5666 5667 5667 5668 5669 5669 5669 5670 5670 5672 5672 5673 5674 5676 5677 5679 5680 5682 5684 5685 5687 5688 5689 5690 5691 5693 5694 5695 5696 5697 5698 5699 5700 5700 5701 5701
5663 5663 5662 5661 5660 5660 5660 5660 5660 5659 5659 5659 5659 5660 5659 5659 5660 5660 5660 5660 5660 5661 5661 5662 5663 5664 5665 5666 5667 5669 5671 5672 5674 5675 5676 5677 5678 5679 5681 5682 5683 5684 5685 5686 5687 5687 5688 5688 5688
5658 5658 5657 5656 5655 5655 5655 5654 5655 5654 5653 5652 5652 5653 5652 5652 5652 5651 5651 5651 5651 5651 5651 5652 5652 5653 5654 5655 5656 5657 5659 5660 5661 5663 5664 5665 5666 5667 5669 5670 5671 5671 5672 5673 5674 5675 5675 5675 5675
5652 5652 5652 5651 5650 5650 5649 5648 5650 5648 5647 5646 5646 5645 5645 5644 5644 5643 5643 5642 5641 5641 5641 5642 5642 5642 5642 5643 5644 5645 5646 5647 5648 5649 5651 5652 5653 5655 5656 5658 5659 5659 5660 5660 5661 5661 5662 5662 5663
5647 5647 5647 5646 5645 5644 5643 5644 5644 5642 5641 5640 5639 5639 5638 5637 5637 5636 5635 5634 5633 5632 5632 5632 5632 5631 5631 5632 5632 5633 5634 5635 5636 5636 5638 5640 5641 5642 5643 5645 5646 5647 5647 5648 5648 5649 5649 5650 5650
5642 5642 5641 5640 5639 5638 5638 5638 5638 5636 5635 5634 5633 5632 5631 5630 5629 5627 5626 5625 5624 5623 5622 5622 5621 5621 5621 5621 5621 5621 5622 5622 5623 5624 5625 5627 5628 5629 5630 5632 5633 5634 5634 5635 5636 5636 5637 5637 5637
5637 5637 5635 5634 5633 5633 5632 5634 5632 5630 5629 5627 5626 5625 5623 5622 5621 5619 5618 5616 5615 5614 5613 5612 5612 5611 5611 5610 5610 5609 5609 5609 5610 5611 5612 5614 5615 5616 5618 5619 5619 5620 5621 5622 5623 5623 5624 5624 5624
5631 5630 5630 5629 5628 5626 5626 5629 5625 5624 5622 5620 5619 5617 5616 5614 5612 5611 5609 5607 5605 5604 5603 5602 5601 5600 5600 5599 5598 5597 5597 5597 5597 5598 5599 5601 5602 5603 5604 5605 5606 5607 5608 5609 5609 5610 5610 5611 5611